#timestamp,LO_Frequency,Hit,StdDev 
1605852015.1,286047001.9,N
1605852016.0,286047001.9,N
1605852035.8,286047001.3,N
1605852055.7,286047003.7,Y
1605852075.5,286047000.6,P
1605852095.3,286047002.4,P
1605852115.2,286047001.9,N
1605852135.9,286047004.4,Y
1605852155.7,286047000.5,P
1605852175.6,286047000.2,N
1605852195.4,286047002.4,P
1605852215.2,286046999.9,N
1605852235.1,286047001.5,N
1605852236.0,286047001.5,N
1605852255.8,286047001.5,N
1605852275.6,286047002.0,N
1605852295.5,286047003.8,Y
1605852315.3,286047002.3,P
1605852335.1,286047002.3,P
1605852355.9,286047001.3,N
1605852375.7,286047004.2,Y
1605852395.5,286047002.0,P
1605852415.4,286047001.9,P
1605852435.2,286047004.1,P
1605852455.0,286047004.3,Y
1605852455.9,286047004.3,P
1605852475.8,286046999.8,N
1605852495.6,286047000.4,N
1605852515.4,286047000.9,N
1605852535.3,286047002.5,N
1605852555.1,286047000.5,N
1605852575.8,286047002.5,N
1605852595.7,286047001.5,N
1605852615.5,286047002.1,N
1605852635.3,286047002.1,N
1605852655.2,286047001.3,N
1605852675.0,286047002.9,N
1605852675.9,286047002.9,N
1605852695.7,286047003.0,N
1605852715.6,286047003.5,N
1605852735.4,286047003.5,N
1605852755.2,286047003.7,Y
1605852775.1,286047004.2,P
1605852776.0,286047004.2,P
1605852795.8,286047001.3,N
1605852815.6,286047004.2,Y
1605852835.5,286047000.9,P
1605852855.3,286047001.0,N
1605852875.1,286046999.7,N
1605852895.9,286047002.3,N
1605852915.7,286047000.2,N
1605852935.5,286047002.6,N
1605852955.4,286047002.3,N
1605852975.2,286047002.6,N
1605852995.0,286047002.0,N
1605852995.9,286047002.0,N
1605853015.8,286047003.9,Y
1605853035.6,286047002.0,P
1605853055.4,286047001.8,P
1605853075.3,286047001.7,P
1605853095.1,286047003.4,Y
1605853115.8,286047004.0,P
1605853135.7,286047002.1,N
1605853155.5,286047002.0,N
1605853175.3,286047002.6,N
1605853195.2,286046999.7,N
1605853215.0,286047002.4,N
1605853215.9,286047002.4,N
1605853235.7,286046999.7,N
1605853255.6,286047002.0,N
1605853275.4,286047002.6,N
1605853295.2,286047003.9,Y
1605853315.1,286047000.2,P
1605853316.0,286047000.2,N
1605853335.8,286047001.9,N
1605853355.6,286047002.1,N
1605853375.5,286047002.6,N
1605853395.3,286047001.6,N
1605853415.1,286047002.1,N
1605853435.9,286047001.3,N
1605853455.7,286047003.8,Y
1605853475.5,286047002.5,P
1605853495.4,286047003.1,P
1605853515.2,286047001.3,N
1605853535.0,286047001.9,N
1605853535.9,286047001.9,N
1605853555.8,286047001.8,N
1605853575.6,286047003.4,Y
1605853595.4,286046999.8,P
1605853615.3,286046999.7,N
1605853635.1,286047002.6,N
1605853655.8,286047001.8,N
1605853675.7,286047002.1,N
1605853695.5,286047001.5,N
1605853715.3,286047002.2,N
1605853735.2,286047002.6,N
1605853755.0,286047002.0,N
1605853755.9,286047002.0,N
1605853775.7,286046999.8,N
1605853795.6,286047002.4,N
1605853815.4,286047002.3,N
1605853835.2,286047002.2,N
1605853855.1,286047001.6,N
1605853856.0,286047001.6,N
1605853875.8,286047002.3,N
1605853895.6,286047002.4,N
1605853915.5,286047001.9,N
1605853935.3,286047001.5,N
1605853955.1,286047002.2,N
1605853975.9,286047001.5,N
1605853995.7,286047003.8,Y
1605854015.5,286047002.3,P
1605854035.4,286047011.9,P
1605854055.2,286046999.9,N
1605854075.0,286047000.2,N
1605854075.9,286047000.2,N
1605854095.8,286047002.3,N
1605854115.6,286047001.3,N
1605854135.4,286047002.4,N
1605854155.3,286047002.6,N
1605854175.1,286047002.5,N
1605854195.8,286047002.5,N
1605854215.7,286047002.8,N
1605854235.5,286047000.2,N
1605854255.3,286047000.8,N
1605854275.2,286046999.8,N
1605854295.0,286047000.6,N
1605854295.9,286047000.6,N
1605854315.7,286047000.8,N
1605854335.6,286047000.3,N
1605854355.4,286047001.2,N
1605854375.2,286047000.6,N
1605854395.1,286047000.4,N
1605854396.0,286047000.4,N
1605854415.8,286046999.8,N
1605854435.6,286047000.4,N
1605854455.5,286047002.8,N
1605854475.3,286047000.4,N
1605854495.1,286047000.9,N
1605854515.9,286047000.5,N
1605854535.7,286046998.5,N
1605854555.5,286047001.0,N
1605854575.4,286047001.2,N
1605854595.2,286046998.1,N
1605854615.0,286046999.0,N
1605854615.9,286046999.0,N
1605854635.8,286046996.9,N
1605854655.6,286046999.1,N
1605854675.4,286046996.5,N
1605854695.3,286046997.0,N
1605854715.1,286046997.2,N
1605854735.8,286046997.2,N
1605854755.7,286046999.3,N
1605854775.5,286046996.9,N
1605854795.3,286046997.9,N
1605854815.2,286046997.2,N
1605854835.0,286046997.9,N
1605854835.9,286046997.9,N
1605854855.7,286046996.9,N
1605854875.6,286046995.1,N
1605854895.4,286046996.9,N
1605854915.2,286046996.5,N
1605854935.1,286046997.6,N
1605854936.0,286046997.6,N
1605854955.8,286046998.0,N
1605854975.6,286046998.0,N
1605854995.5,286046997.6,N
1605855015.3,286046997.6,N
1605855035.1,286046995.1,Y
1605855055.9,286046997.0,P
1605855075.7,286046998.0,P
1605855095.5,286046998.8,N
1605855115.4,286046994.9,Y
1605855135.2,286047001.1,P
1605855155.0,286046998.7,N
1605855156.0,286046998.7,N
1605855175.8,286046999.3,N
1605855195.6,286046998.4,N
1605855215.4,286046998.2,N
1605855235.3,286046999.5,N
1605855255.1,286046998.8,N
1605855275.9,286046998.8,N
1605855295.7,286046999.3,N
1605855315.5,286046997.3,Y
1605855335.4,286046999.6,P
1605855355.2,286046999.2,N
1605855375.0,286046997.2,P
1605855375.9,286046997.2,Y
1605855395.8,286046999.3,P
1605855415.6,286046998.6,P
1605855435.4,286047001.0,P
1605855455.3,286046998.5,N
1605855475.1,286046998.3,N
1605855476.0,286046998.3,N
1605855495.8,286046998.9,N
1605855515.7,286046998.6,N
1605855535.5,286046999.4,N
1605855555.3,286046996.9,Y
1605855575.2,286046998.1,P
1605855595.9,286046999.2,N
